Location: Saint-Usage
(47.1052°N, 5.2587°E)
Time: 01:47:33
(UTC+01:00)

NOAA 19 - Pass Details

Date: 02 December 2021
Orbit: 841 x 860 km, 99.2° (Epoch: 17 January)

Event Time Altitude Azimuth Distance (km) Brightness Sun altitude
Rises 19:57:19 0° 186° (S) 3,382 8.4 -30.9°
Reaches altitude 10° 19:59:49 10° 194° (SSW) 2,453 7.7 -31.3°
Maximum altitude 20:04:52 38° 262° (W) 1,260 6.5 -32.2°
Drops below altitude 10° 20:09:58 10° 331° (NNW) 2,475 7.9 -33.0°
Sets 20:12:31 0° 339° (NNW) 3,417 8.6 -33.5°
